Location: Rotheul
(50.2849°N, 11.2349°E)
Time: 00:37:43
(UTC+02:00)

ISS - Pass Details

Date: 17 July 2018
Orbit: 402 x 408 km, 51.6° (Epoch: 19 July)

Event Time Altitude Azimuth Distance (km) Brightness Sun altitude
Exits shadow 03:13:47 - 278° (W) 2,174 -0.3 -14.3°
Reaches altitude 10° 03:15:30 10° 280° (W) 1,469 -1.2 -14.2°
Maximum altitude 03:18:47 69° 5° (N) 441 -3.5 -13.9°
Drops below altitude 10° 03:22:04 10° 89° (E) 1,471 -0.6 -13.7°
Sets 03:24:10 0° 92° (E) 2,332 0.4 -13.5°
